Regional Weather Roundup
Issued by NWS Midland/Odessa, TX

Skip options and go directly to product.
Home | Oldest Version | Previous Version | Current Version | All | Text Only | Save Text | Print | Product List | Glossary Off

Skip product version selection by date and time.   

021
ASUS44 KMAF 250210
RWRMAF
MIDLAND AREA WEATHER ROUNDUP
NATIONAL WEATHER SERVICE MIDLAND TX
800 PM CST MON NOV 24 2014

...IN SOUTHWEST TEXAS AND SOUTHEAST NEW MEXICO...

CITY           SKY/WX    TMP DP  RH WIND       PRES   REMARKS
ALPINE         CLEAR     36   9  32 S6        30.17R WCI  31
ANDREWS        FAIR      43  13  29 S6        30.09R WCI  39
ARTESIA        NOT AVBL
BIG SPRING     CLEAR     43  29  58 SE8       30.11R WCI  39
CARLSBAD       MOCLDY    48  12  23 NW7       30.10R
DRYDEN           N/A     47  22  37 NE7       30.08R
FORT STOCKTON  CLEAR     41  15  35 S8        30.09R WCI  36
GUAD PASS      CLEAR     42   0  17 N10       30.15R WCI  36
HOBBS          MOCLDY    45  10  24 NW9       30.10R WCI  40
MARFA          CLEAR     36   0  21 CALM      30.13R
MIDLAND AIRPK  CLEAR     47  28  46 SE3       30.09R
MIDLAND INTL   CLEAR     45  26  47 SE7       30.08R
ODESSA         CLEAR     46   8  21 SE7       30.08R
PECOS          CLEAR     44  12  27 CALM      30.09R
PRESIDIO       FAIR      47  13  25 N9        30.09R
SEMINOLE       PTCLDY    43  13  29 CALM      30.09R
SNYDER         CLEAR     50  23  35 SE3       30.10R
WINK           CLEAR     40  10  29 CALM      30.08R
$$
...OTHER STATIONS IN TEXAS...

CITY           SKY/WX    TMP DP  RH WIND       PRES   REMARKS
ABILENE        PTCLDY    46  28  49 SE7       30.11R
AMARILLO       CLOUDY    40  17  39 W3        30.14R
AUSTIN         CLEAR     41  36  82 CALM      30.13R
BROWNSVILLE    PTCLDY    57  48  72 N6        30.09R
CORPUS CHRISTI PTCLDY    58  40  51 NE7       30.10R
DALLAS FTW     PTCLDY    50  24  36 NW7       30.11R
DEL RIO        CLEAR     52  31  44 NE6       30.10R
EL PASO        PTCLDY    48  -3  12 NE7       30.10R
HOUSTON INT    PTCLDY    55  36  48 NW3       30.10R
LUBBOCK        MOCLDY    42  19  39 N9        30.10R WCI  37
SAN ANGELO     PTCLDY    43  25  49 E7        30.10R WCI  39
SAN ANTONIO    CLEAR     54  23  30 N6        30.13R
WACO           CLEAR     41  34  76 CALM      30.13R
WICHITA FALLS  NOT AVBL
$$
...OTHER LOCATIONS IN NEW MEXICO...

CITY           SKY/WX    TMP DP  RH WIND       PRES   REMARKS
ALAMAGORDO     PTCLDY    46   5  18 MISG      30.17R
ALBUQUERQUE    MOCLDY    37  17  44 N17       30.23R WCI  27
CANNON AFB     MOCLDY    32   9  37 N9        30.13R WCI  25
CLOVIS         MOCLDY    30   5  34 N10       30.12R WCI  21
HOLLOMAN AFB   MOCLDY    45   8  21 N9        30.17R
ROSWELL        PTCLDY    44   7  21 W7        30.12R
RUIDOSO        MOCLDY    32   0  25 NW13G24   30.17R WCI  22
SANTA FE       PTCLDY    24  18  77 NW5       30.19R WCI  18
TRUTH OR CONSE PTCLDY    43  12  28 N18G24    30.19R WCI  35
TUCUMCARI      PTCLDY    31  22  69 VRB3      30.13R
$$

USA.gov is the U.S. government's official web portal to all federal, state and local government web resources and services.